Location: Mohawk View
(42.7837°N, 73.7885°W)
Time: 13:06:52
(UTC+00:00)

Cosmos 2016 Rocket - Pass Details

Date: 17 June 2021
Orbit: 947 x 1000 km, 83.0° (Epoch: 31 July)

Event Time Altitude Azimuth Distance (km) Brightness Sun altitude
Rises 03:18:10 0° 347° (NNW) 3,627 8.5 -20.1°
Reaches altitude 10° 03:20:42 10° 344° (NNW) 2,678 7.5 -20.3°
Maximum altitude 03:26:37 55° 268° (W) 1,135 4.4 -20.7°
Enters shadow 03:29:50 27° 203° (SSW) 1,741 4.9 -20.9°
